2021-002J (47317 NORAD) Tracking and Keplerian Element Data

This shows tracking and keplerian element data for the satellite.

Feedback or suggestion? Click here.




ElementValue
Catalog47317
Name2021-002J
Epoch Orbit632
Epoch Day59.75188817
Epoch Year2021
RAAN338.2064
Inclination60.689
Eccentricity0.0022131
Argument of Perigee333.3925
Mean Anonmoly26.6023
Mean Motion15.20463309
Decay Rate9.83E-06
L11 47317U 21002J 21059.75188817 .00000983 00000-0 56710-4 0 9992
L22 47317 60.6890 338.2064 0022131 333.3925 26.6023 15.20463309 6329

Live tracking and technical data element details for 2021-002J (NORAD 47317). 2021-002J can be tracked NOW for your location showing map with azimuth and elevation plus other details from your city location.

Track the satellite on the map from your city or location and see movement details for azimuth, elevation, latitude, longitude, range, height, and movement on the map or in text.







IsCatalogInMostPopularTable: catalog: 47317, numindb: 9
Update: records affected: 1



GetName: 47317 2021-002J

Hit Count: updated at: Mon, 01 Mar 2021 21:57:52 GMT